Location: Las Navas
(40.6024°N, 4.3345°W)
Time: 08:39:12
(UTC+00:00)

Cosmos 1818 - Pass Details

Date: 03 April 2020
Orbit: 778 x 796 km, 65.0° (Epoch: 29 May)

Event Time Altitude Azimuth Distance (km) Brightness Sun altitude
Rises 19:18:46 0° 178° (S) 3,258 6.6 -7.2°
Reaches altitude 10° 19:21:29 10° 166° (SSE) 2,338 5.7 -7.7°
Maximum altitude 19:25:55 27° 111° (ESE) 1,494 4.4 -8.5°
Drops below altitude 10° 19:30:22 10° 55° (NE) 2,361 5.7 -9.3°
Sets 19:33:07 0° 44° (NE) 3,297 6.5 -9.8°
